FW2417 Weather Reports


Display with metric or nautical units.
time (UTC)temp
F
wind
direction
speed
MPH
gust
MPH
rain 1hr
in
rain 24hr
in
rain mn
in
humidity
%
barometer
mb
20260903201505 94 240 1.0 6.0 0.00 0.00 0.00 48 1019.0
20260903200113 95 239 1.0 4.0 0.00 0.00 0.00 46 1019.0
20260903194616 96 248 0.0 5.0 0.00 0.00 0.00 44 1018.8
20260903193111 97 212 1.0 8.0 0.00 0.00 0.00 41 1018.6
20260903191611 99 240 1.0 8.0 0.00 0.00 0.00 31 1018.4
20260903190115 102 215 7.0 15.0 0.00 0.00 0.00 25 1018.3
20260903184503 105 49 0.0 1.0 0.00 0.00 0.00 17 1017.9
20260903183113 105 49 0.0 1.0 0.00 0.00 0.00 16 1017.9
20260903181609 106 46 0.0 1.0 0.00 0.00 0.00 16 1017.9
20260903180100 108 25 0.0 1.0 0.00 0.00 0.00 16 1017.9
20260903174555 108 48 0.0 4.0 0.00 0.00 0.00 16 1017.9
20260903173041 108 92 0.0 2.0 0.00 0.00 0.00 17 1017.9
20260903171553 108 56 0.0 2.0 0.00 0.00 0.00 17 1017.8
20260903170054 108 82 1.0 5.0 0.00 0.00 0.00 17 1017.8
20260903164543 109 5 0.0 3.0 0.00 0.00 0.00 16 1017.8
20260903163100 109 52 0.0 3.0 0.00 0.00 0.00 16 1017.8
20260903161511 109 91 1.0 5.0 0.00 0.00 0.00 17 1017.8
20260903160009 109 77 0.0 4.0 0.00 0.00 0.00 17 1017.7
20260903154535 110 49 0.0 4.0 0.00 0.00 0.00 16 1017.8
20260903153009 110 229 0.0 1.0 0.00 0.00 0.00 16 1017.9
20260903151534 109 83 1.0 5.0 0.00 0.00 0.00 17 1018.1
20260903150040 110 219 0.0 1.0 0.00 0.00 0.00 15 1018.2
20260903144530 109 89 1.0 5.0 0.00 0.00 0.00 15 1018.3
20260903143115 108 62 2.0 5.0 0.00 0.00 0.00 17 1018.4
20260903141617 108 78 1.0 9.0 0.00 0.00 0.00 18 1018.5
20260903140106 107 63 1.0 6.0 0.00 0.00 0.00 19 1018.6
20260903134608 107 46 2.0 8.0 0.00 0.00 0.00 18 1018.7
20260903133105 107 346 0.0 6.0 0.00 0.00 0.00 20 1018.7
20260903131555 108 6 0.0 5.0 0.00 0.00 0.00 19 1018.9
20260903130047 107 72 0.0 3.0 0.00 0.00 0.00 20 1019.0
20260903124600 107 190 0.0 2.0 0.00 0.00 0.00 20 1019.1
20260903123038 105 84 0.0 4.0 0.00 0.00 0.00 22 1019.2
20260903121542 104 94 0.0 5.0 0.00 0.00 0.00 22 1019.3
20260903120039 104 77 1.0 4.0 0.00 0.00 0.00 24 1019.5
20260903114504 103 100 0.0 5.0 0.00 0.00 0.00 25 1019.7
20260903113111 101 29 1.0 13.0 0.00 0.00 0.00 28 1019.9
20260903111619 100 133 1.0 8.0 0.00 0.00 0.00 29 1020.0
20260903110105 99 79 2.0 6.0 0.00 0.00 0.00 30 1020.1
20260903104608 99 128 0.0 2.0 0.00 0.00 0.00 30 1020.2
20260903103052 97 84 1.0 9.0 0.00 0.00 0.00 33 1020.3
20260903101545 96 109 1.0 4.0 0.00 0.00 0.00 36 1020.5
20260903100038 95 84 2.0 5.0 0.00 0.00 0.00 38 1020.5
20260903094505 93 56 1.0 4.0 0.00 0.00 0.00 40 1020.5
20260903093130 92 113 0.0 4.0 0.00 0.00 0.00 42 1020.4
20260903091611 90 74 0.0 2.0 0.00 0.00 0.00 46 1020.4
20260903090109 89 72 0.0 4.0 0.00 0.00 0.00 47 1020.3
20260903084603 87 77 0.0 2.0 0.00 0.00 0.00 49 1020.2
20260903083059 85 99 0.0 2.0 0.00 0.00 0.00 52 1020.3
20260903081558 83 30 0.0 3.0 0.00 0.00 0.00 56 1020.2
20260903080047 81 220 0.0 1.0 0.00 0.00 0.00 61 1020.3
20260903074551 82 219 0.0 0.0 0.00 0.00 0.00 62 1020.2
20260903073050 81 219 0.0 0.0 0.00 0.00 0.00 62 1020.1
20260903071610 79 219 0.0 0.0 0.00 0.00 0.00 64 1020.2
20260903064551 79 219 0.0 0.0 0.00 0.00 0.00 67 1019.9
20260903063048 77 219 0.0 0.0 0.00 0.00 0.00 70 1019.9
20260903061546 76 219 0.0 1.0 0.00 0.00 0.00 71 1019.7
20260903060048 76 219 0.0 1.0 0.00 0.00 0.00 71 1019.5
20260903054546 76 219 0.0 0.0 0.00 0.00 0.00 71 1019.3
20260903053034 76 219 0.0 1.0 0.00 0.00 0.00 70 1019.3
20260903051511 77 219 0.0 0.0 0.00 0.00 0.00 69 1019.3
20260903050035 77 219 0.0 0.0 0.00 0.00 0.00 70 1019.2
20260903044548 77 219 0.0 1.0 0.00 0.00 0.00 69 1019.2
20260903043005 78 224 0.0 1.0 0.00 0.00 0.00 67 1019.2
20260903041517 78 242 0.0 1.0 0.00 0.00 0.00 70 1019.2
20260903040002 78 242 0.0 0.0 0.00 0.00 0.00 69 1019.0
20260903034614 78 242 0.0 1.0 0.00 0.00 0.00 67 1019.1
20260903033111 78 241 0.0 1.0 0.00 0.00 0.00 65 1019.3
20260903031603 78 242 0.0 1.0 0.00 0.00 0.00 64 1019.1
20260903030054 79 243 0.0 2.0 0.00 0.00 0.00 65 1019.1
20260903024554 81 325 0.0 1.0 0.00 0.00 0.00 61 1019.1
20260903023048 83 85 0.0 1.0 0.00 0.00 0.00 60 1019.0
20260903021555 83 84 0.0 1.0 0.00 0.00 0.00 60 1019.0
20260903014624 84 84 0.0 1.0 0.00 0.00 0.00 61 1019.1
20260903013102 83 75 0.0 0.0 0.00 0.00 0.00 63 1019.2
20260903011549 82 135 0.0 1.0 0.00 0.00 0.00 63 1019.3
20260903010044 84 239 0.0 1.0 0.00 0.00 0.00 59 1019.3
20260903004553 85 239 0.0 0.0 0.00 0.00 0.00 60 1019.4
20260903003101 85 239 0.0 0.0 0.00 0.00 0.00 59 1019.3
20260903001552 85 239 0.0 0.0 0.00 0.00 0.00 59 1019.4
20260903000059 85 239 0.0 0.0 0.00 0.00 0.00 60 1019.4
20260902234555 85 239 0.0 0.0 0.00 0.00 0.00 60 1019.4
20260902233049 85 239 0.0 0.0 0.00 0.00 0.00 60 1019.3
20260902231554 85 239 0.0 0.0 0.00 0.00 0.00 60 1019.4
20260902230049 85 239 0.0 0.0 0.00 0.00 0.00 59 1019.6
20260902224607 85 239 0.0 1.0 0.00 0.00 0.00 59 1019.5
20260902223052 85 239 0.0 0.0 0.00 0.00 0.00 59 1019.5
20260902221548 85 239 0.0 0.0 0.00 0.00 0.00 57 1019.3
20260902220015 86 239 0.0 0.0 0.00 0.00 0.00 57 1019.1
20260902214604 87 239 0.0 0.0 0.00 0.00 0.00 56 1019.0
20260902213031 88 239 0.0 0.0 0.00 0.00 0.00 56 1019.1
20260902211508 88 239 0.0 1.0 0.00 0.00 0.00 55 1019.1
20260902210006 89 248 0.0 2.0 0.00 0.00 0.00 55 1019.1
20260902204503 89 246 0.0 2.0 0.00 0.00 0.00 54 1019.1
20260902203117 90 232 0.0 0.0 0.00 0.00 0.00 52 1018.9